QPF
0.00 0.00 0.00 0.00 0.00 0.00 0.00 0.00 0.00 0.00 0.00 0.00 0.00 0.00 0.00 0.00 0.00 0.00 0.00 0.00 0.00 0.00 0.00 0.00 0.00 0.00 0.00 0.00 0.00 0.00 0.00 0.00 0.00 0.00 0.00 0.00 0.00 0.00 0.00 0.00 0.00 0.00 0.00 0.00 0.00
0.00 0.00 0.00 0.00 0.00 0.00 0.00 0.00 0.00 0.00 0.00 0.00 0.00 0.00 0.00 0.00 0.00 0.00 0.00 0.00 0.00 0.00 0.00 0.00 0.00 0.00 0.00 0.00 0.00 0.00 0.00 0.00 0.00 0.00 0.00 0.00 0.00 0.00 0.00 0.00 0.00 0.00 0.00 0.00 0.00
0.00 0.00 0.00 0.00 0.00 0.00 0.00 0.00 0.00 0.00 0.00 0.00 0.00 0.00 0.00 0.00 0.00 0.00 0.00 0.00 0.00 0.00 0.00 0.00 0.00 0.00 0.00 0.00 0.00 0.00 0.00 0.00 0.00 0.00 0.00 0.00 0.00 0.00 0.00 0.00 0.00 0.00 0.00 0.00 0.00
0.00 0.00 0.00 0.00 0.00 0.00 0.00 0.00 0.00 0.00 0.00 0.00 0.00 0.00 0.00 0.00 0.00 0.00 0.00 0.00 0.00 0.00 0.00 0.00 0.00 0.00 0.00 0.00 0.00 0.00 0.00 0.00 0.00 0.00 0.00 0.00 0.00 0.00 0.00 0.00 0.00 0.00 0.00 0.00 0.00
0.00 0.00 0.00 0.00 0.00 0.00 0.00 0.00 0.00 0.00 0.00 0.00 0.00 0.00 0.00 0.00 0.00 0.00 0.00 0.00 0.00 0.00 0.00 0.00 0.00 0.00 0.00 0.00 0.00 0.00 0.00 0.00 0.00 0.00 0.00 0.00 0.00 0.00 0.00 0.00 0.00 0.00 0.00 0.00 0.00
0.00 0.00 0.00 0.00 0.00 0.00 0.00 0.00 0.00 0.00 0.00 0.00 0.00 0.00 0.00 0.00 0.00 0.00 0.00 0.00 0.00 0.00 0.00 0.00 0.00 0.00 0.00 0.00 0.00 0.00 0.00 0.00 0.00 0.00 0.00 0.00 0.00 0.00 0.00 0.00 0.00 0.00 0.00 0.00 0.00
0.00 0.00 0.00 0.00 0.00 0.00 0.00 0.00 0.00 0.00 0.00 0.00 0.00 0.00 0.00 0.00 0.00 0.00 0.00 0.00 0.00 0.00 0.00 0.00 0.00 0.00 0.00 0.00 0.00 0.00 0.00 0.00 0.00 0.00 0.00 0.00 0.00 0.00 0.00 0.00 0.00 0.00 0.00 0.00 0.00
0.00 0.00 0.00 0.00 0.00 0.00 0.00 0.00 0.00 0.00 0.00 0.00 0.00 0.00 0.00 0.00 0.00 0.00 0.00 0.00 0.00 0.00 0.00 0.00 0.00 0.00 0.00 0.00 0.00 0.00 0.00 0.00 0.00 0.00 0.00 0.00 0.00 0.00 0.00 0.00 0.00 0.00 0.00 0.00 0.00
0.00 0.00 0.00 0.00 0.00 0.00 0.00 0.00 0.00 0.00 0.00 0.00 0.00 0.00 0.00 0.00 0.00 0.00 0.00 0.00 0.00 0.00 0.00 0.00 0.00 0.00 0.00 0.00 0.00 0.00 0.00 0.00 0.00 0.00 0.00 0.00 0.00 0.00 0.00 0.00 0.00 0.00 0.00 0.00 0.00
0.00 0.00 0.00 0.00 0.00 0.00 0.00 0.00 0.00 0.00 0.00 0.00 0.00 0.00 0.00 0.00 0.00 0.00 0.00 0.00 0.00 0.00 0.00 0.00 0.00 0.00 0.00 0.00 0.00 0.00 0.00 0.00 0.00 0.00 0.00 0.00 0.00 0.00 0.00 0.00 0.00 0.00 0.00 0.00 0.00
0.00 0.00 0.00 0.00 0.00 0.00 0.00 0.00 0.00 0.00 0.00 0.00 0.00 0.00 0.00 0.00 0.00 0.00 0.00 0.00 0.00 0.00 0.00 0.00 0.00 0.00 0.00 0.00 0.00 0.00 0.00 0.00 0.00 0.00 0.00 0.00 0.00 0.00 0.00 0.00 0.00 0.00 0.00 0.00 0.00
0.00 0.00 0.00 0.00 0.00 0.00 0.00 0.00 0.00 0.00 0.00 0.00 0.00 0.00 0.00 0.00 0.00 0.00 0.00 0.00 0.00 0.00 0.00 0.00 0.00 0.00 0.00 0.00 0.00 0.00 0.00 0.00 0.00 0.00 0.00 0.00 0.00 0.00 0.00 0.00 0.00 0.00 0.00 0.00 0.00
0.00 0.00 0.00 0.00 0.00 0.00 0.00 0.00 0.00 0.00 0.00 0.00 0.00 0.00 0.00 0.00 0.00 0.00 0.00 0.00 0.00 0.00 0.00 0.00 0.00 0.00 0.00 0.00 0.00 0.00 0.00 0.00 0.00 0.00 0.00 0.00 0.00 0.00 0.00 0.00 0.00 0.00 0.00 0.00 0.00
0.00 0.00 0.00 0.00 0.00 0.00 0.00 0.00 0.00 0.00 0.00 0.00 0.00 0.00 0.00 0.00 0.00 0.00 0.00 0.00 0.00 0.00 0.00 0.00 0.00 0.00 0.00 0.00 0.00 0.00 0.00 0.00 0.00 0.00 0.00 0.00 0.00 0.00 0.00 0.00 0.00 0.00 0.00 0.00 0.00
0.00 0.00 0.00 0.00 0.00 0.00 0.00 0.00 0.00 0.00 0.00 0.00 0.00 0.00 0.00 0.00 0.00 0.00 0.00 0.00 0.00 0.00 0.00 0.00 0.00 0.00 0.00 0.00 0.00 0.00 0.00 0.00 0.00 0.00 0.00 0.00 0.00 0.00 0.00 0.00 0.00 0.00 0.00 0.00 0.00
0.00 0.00 0.00 0.00 0.00 0.00 0.00 0.00 0.00 0.00 0.00 0.00 0.00 0.00 0.00 0.00 0.00 0.00 0.00 0.00 0.00 0.00 0.00 0.00 0.00 0.00 0.00 0.00 0.00 0.00 0.00 0.00 0.00 0.00 0.00 0.00 0.00 0.00 0.00 0.00 0.00 0.00 0.00 0.00 0.01
0.00 0.00 0.00 0.00 0.00 0.00 0.00 0.00 0.00 0.00 0.00 0.00 0.00 0.00 0.00 0.00 0.00 0.00 0.00 0.00 0.00 0.00 0.00 0.00 0.00 0.00 0.00 0.00 0.00 0.00 0.00 0.00 0.00 0.00 0.00 0.00 0.00 0.00 0.00 0.00 0.00 0.00 0.00 0.00 0.00
0.00 0.00 0.00 0.00 0.00 0.00 0.00 0.00 0.00 0.00 0.00 0.00 0.00 0.00 0.00 0.00 0.00 0.00 0.00 0.00 0.00 0.00 0.00 0.00 0.00 0.00 0.00 0.00 0.00 0.00 0.00 0.00 0.00 0.00 0.00 0.00 0.00 0.00 0.00 0.00 0.00 0.00 0.00 0.00 0.00
0.00 0.00 0.00 0.00 0.00 0.00 0.00 0.00 0.00 0.00 0.00 0.00 0.00 0.00 0.00 0.00 0.00 0.00 0.00 0.00 0.00 0.00 0.00 0.00 0.00 0.00 0.00 0.00 0.00 0.00 0.00 0.00 0.00 0.00 0.00 0.00 0.00 0.00 0.00 0.00 0.00 0.00 0.00 0.00 0.00
0.00 0.00 0.00 0.00 0.00 0.00 0.00 0.00 0.00 0.00 0.00 0.00 0.00 0.00 0.00 0.00 0.00 0.00 0.00 0.00 0.00 0.00 0.00 0.00 0.00 0.00 0.00 0.00 0.00 0.00 0.00 0.00 0.00 0.00 0.00 0.00 0.00 0.00 0.00 0.00 0.00 0.00 0.00 0.00 0.00
0.00 0.00 0.00 0.00 0.00 0.00 0.00 0.00 0.00 0.00 0.00 0.00 0.00 0.00 0.00 0.00 0.00 0.00 0.00 0.00 0.00 0.00 0.00 0.00 0.00 0.00 0.00 0.00 0.00 0.00 0.00 0.00 0.00 0.00 0.00 0.00 0.00 0.00 0.00 0.00 0.00 0.00 0.00 0.00 0.02
0.00 0.00 0.00 0.00 0.00 0.00 0.00 0.00 0.00 0.00 0.00 0.00 0.00 0.00 0.00 0.00 0.00 0.00 0.00 0.00 0.00 0.00 0.00 0.00 0.00 0.00 0.00 0.00 0.00 0.00 0.00 0.00 0.00 0.00 0.00 0.00 0.00 0.00 0.00 0.00 0.00 0.00 0.00 0.00 0.01
0.00 0.00 0.00 0.00 0.00 0.00 0.00 0.00 0.00 0.00 0.00 0.00 0.00 0.00 0.00 0.00 0.00 0.00 0.00 0.00 0.00 0.00 0.00 0.00 0.00 0.00 0.00 0.00 0.00 0.00 0.00 0.00 0.00 0.00 0.00 0.00 0.00 0.00 0.00 0.00 0.00 0.00 0.00 0.00 0.00
0.00 0.00 0.00 0.00 0.00 0.00 0.00 0.00 0.00 0.00 0.00 0.00 0.00 0.00 0.00 0.00 0.00 0.00 0.00 0.00 0.00 0.00 0.00 0.00 0.00 0.00 0.00 0.00 0.00 0.00 0.00 0.00 0.00 0.00 0.00 0.00 0.00 0.00 0.00 0.00 0.00 0.00 0.00 0.00 0.00
0.00 0.00 0.00 0.00 0.00 0.00 0.00 0.00 0.00 0.00 0.00 0.00 0.00 0.00 0.00 0.00 0.00 0.00 0.00 0.00 0.00 0.00 0.00 0.00 0.00 0.00 0.00 0.00 0.00 0.00 0.00 0.00 0.00 0.00 0.00 0.00 0.00 0.00 0.00 0.00 0.00 0.00 0.00 0.00 0.00
0.00 0.00 0.00 0.00 0.00 0.00 0.00 0.00 0.00 0.00 0.00 0.00 0.00 0.00 0.00 0.00 0.00 0.00 0.00 0.00 0.00 0.00 0.00 0.00 0.00 0.00 0.00 0.00 0.00 0.00 0.00 0.00 0.00 0.00 0.00 0.00 0.00 0.00 0.00 0.00 0.00 0.00 0.00 0.00 0.00
0.00 0.00 0.00 0.00 0.00 0.00 0.00 0.00 0.00 0.00 0.00 0.00 0.00 0.00 0.00 0.00 0.00 0.00 0.00 0.00 0.00 0.00 0.00 0.00 0.00 0.00 0.00 0.00 0.00 0.00 0.00 0.00 0.00 0.00 0.00 0.00 0.00 0.00 0.00 0.00 0.00 0.00 0.00 0.00 0.00
MSLP
1017.50 1017.06 1016.60 1016.14 1015.65 1015.15 1014.73 1014.41 1014.01 1013.53 1013.08 1012.57 1011.99 1011.52 1011.05 1010.33 1008.94 1007.77 1006.90 1005.08 1004.81 1004.95 1005.11 1005.19 1005.46 1005.14 1004.87 1005.41 1005.35 1005.65 1006.82 1007.64 1007.39 1007.48 1006.93 1006.93 1006.55 1006.99 1007.16 1007.33 1007.10 1007.46 1008.29 1009.63 1011.05
1017.65 1017.20 1016.74 1016.24 1015.65 1015.10 1014.58 1014.20 1013.90 1013.46 1012.83 1012.26 1011.88 1011.38 1010.98 1010.51 1009.64 1007.44 1004.59 1004.22 1004.31 1004.64 1004.86 1004.85 1004.77 1004.75 1005.11 1005.08 1005.06 1005.51 1006.17 1006.03 1005.66 1005.79 1006.26 1006.34 1006.60 1006.80 1007.08 1007.10 1007.50 1008.23 1008.94 1010.12 1011.29
1017.61 1017.18 1016.68 1016.20 1015.63 1015.06 1014.54 1014.05 1013.68 1013.21 1012.63 1012.12 1011.61 1011.20 1010.85 1010.60 1009.53 1005.79 1004.02 1004.22 1004.32 1004.50 1004.86 1004.86 1004.86 1004.89 1005.07 1005.09 1004.88 1004.84 1004.72 1004.65 1004.79 1005.36 1005.63 1005.99 1006.39 1006.61 1006.78 1007.48 1007.31 1008.18 1009.28 1010.38 1011.09
1017.55 1017.11 1016.62 1016.11 1015.55 1015.01 1014.39 1013.77 1013.33 1012.97 1012.48 1012.00 1011.47 1011.06 1010.78 1010.47 1008.33 1004.56 1004.11 1004.37 1004.30 1004.45 1004.70 1004.77 1004.88 1005.02 1005.23 1005.13 1004.44 1004.19 1003.58 1003.66 1004.58 1005.25 1005.78 1006.04 1006.25 1006.71 1006.49 1006.22 1006.56 1007.43 1008.55 1009.68 1010.90
1017.43 1016.95 1016.43 1015.93 1015.37 1014.77 1014.19 1013.57 1013.00 1012.65 1012.30 1011.84 1011.49 1011.06 1010.61 1009.78 1007.17 1004.24 1004.35 1004.42 1004.55 1004.57 1004.62 1004.80 1005.01 1005.26 1005.44 1004.99 1004.08 1004.03 1003.89 1004.16 1004.67 1005.50 1005.86 1006.28 1006.23 1006.45 1006.32 1006.32 1006.84 1007.55 1008.57 1009.48 1010.29
1017.41 1016.83 1016.23 1015.66 1015.06 1014.48 1013.91 1013.26 1012.58 1012.16 1012.03 1011.63 1011.29 1011.13 1010.72 1009.04 1005.15 1004.60 1004.58 1004.44 1004.58 1004.73 1004.55 1004.77 1004.84 1004.95 1004.97 1004.79 1004.77 1003.98 1004.02 1004.28 1005.36 1005.35 1005.80 1006.55 1006.69 1006.69 1006.48 1006.58 1007.10 1007.64 1008.34 1009.22 1009.81
1017.31 1016.75 1016.17 1015.54 1014.83 1014.16 1013.50 1012.86 1012.21 1011.65 1011.43 1011.30 1011.18 1011.00 1010.28 1006.86 1004.91 1004.74 1004.77 1004.54 1004.44 1004.65 1004.76 1004.50 1004.46 1004.95 1004.74 1004.74 1004.29 1004.02 1004.83 1005.26 1006.10 1005.63 1005.98 1006.24 1006.87 1006.74 1006.73 1007.00 1007.41 1008.05 1008.20 1008.75 1009.45
1017.12 1016.58 1015.95 1015.34 1014.63 1013.87 1013.01 1012.23 1011.59 1011.01 1010.78 1010.87 1010.85 1010.70 1008.90 1005.50 1005.18 1004.81 1004.49 1004.22 1004.05 1004.23 1004.44 1004.09 1004.33 1004.69 1004.87 1004.80 1004.54 1004.63 1004.87 1005.92 1005.64 1005.77 1005.95 1006.28 1006.54 1006.79 1007.18 1007.52 1007.98 1008.21 1008.40 1008.51 1009.04
1016.99 1016.38 1015.68 1014.99 1014.30 1013.52 1012.58 1011.77 1011.00 1010.31 1010.39 1010.57 1010.73 1010.21 1007.76 1005.13 1004.97 1003.93 1004.00 1004.23 1004.03 1004.01 1004.01 1003.89 1004.17 1005.12 1005.20 1005.66 1006.00 1006.02 1005.98 1005.98 1006.01 1005.89 1005.82 1006.60 1006.64 1006.64 1007.43 1007.95 1008.46 1008.51 1008.47 1008.56 1008.84
1016.86 1016.24 1015.52 1014.73 1013.98 1013.19 1012.08 1011.02 1010.53 1010.58 1010.55 1010.44 1010.05 1009.89 1006.97 1005.50 1004.74 1004.15 1003.97 1003.98 1004.19 1004.41 1004.40 1004.48 1005.25 1005.96 1006.67 1006.79 1007.26 1007.03 1006.63 1006.00 1006.08 1005.88 1006.10 1006.57 1006.27 1006.81 1007.46 1008.28 1008.58 1008.56 1008.71 1008.94 1008.74
1016.76 1016.12 1015.40 1014.63 1013.63 1012.89 1011.92 1010.75 1010.91 1010.58 1010.01 1009.29 1008.57 1007.83 1006.39 1005.24 1004.46 1004.04 1003.93 1004.06 1004.44 1005.16 1005.64 1005.86 1006.37 1006.61 1006.75 1006.92 1006.98 1006.87 1006.66 1006.49 1005.35 1005.01 1005.50 1006.05 1006.16 1006.52 1007.75 1008.28 1008.45 1008.72 1008.74 1008.99 1008.81
1016.64 1016.02 1015.28 1014.30 1013.34 1012.69 1012.51 1012.17 1011.44 1011.64 1010.27 1007.84 1006.95 1006.70 1005.93 1005.62 1005.68 1004.45 1003.91 1004.59 1005.08 1005.75 1006.18 1006.71 1006.64 1006.29 1006.35 1006.64 1006.80 1006.73 1006.67 1006.02 1004.80 1004.34 1004.51 1006.03 1006.24 1006.75 1007.57 1007.69 1008.31 1008.51 1008.69 1009.01 1008.97
1016.45 1015.85 1015.13 1014.08 1012.94 1012.60 1012.73 1011.63 1010.96 1011.07 1010.57 1007.13 1006.16 1005.63 1005.34 1005.55 1005.42 1004.37 1004.19 1004.63 1005.31 1006.09 1006.52 1006.87 1006.25 1005.91 1006.21 1006.31 1006.64 1006.48 1006.61 1006.02 1005.45 1004.53 1004.80 1005.70 1006.61 1007.05 1007.56 1008.12 1008.17 1008.13 1008.67 1008.78 1008.97
1016.30 1015.77 1015.24 1014.13 1012.97 1013.34 1011.99 1010.85 1010.55 1010.48 1009.83 1006.86 1005.40 1004.22 1004.45 1004.64 1004.61 1003.71 1003.78 1004.50 1005.35 1005.85 1006.67 1006.64 1005.77 1005.74 1005.90 1006.10 1006.42 1006.33 1005.57 1005.71 1005.49 1005.51 1006.03 1006.39 1007.59 1007.40 1007.75 1007.94 1008.17 1008.09 1008.05 1008.01 1008.02
1016.12 1015.65 1015.40 1015.14 1014.60 1013.54 1011.31 1010.49 1009.99 1009.90 1008.96 1005.56 1004.36 1003.43 1003.84 1004.24 1004.02 1003.48 1003.54 1004.08 1005.11 1005.74 1006.44 1006.29 1005.67 1005.50 1005.57 1005.37 1005.77 1005.34 1005.41 1005.56 1005.72 1006.28 1006.99 1007.35 1008.10 1007.19 1007.84 1007.90 1007.60 1007.82 1007.47 1007.63 1008.10
1015.83 1015.47 1015.32 1014.89 1014.66 1012.17 1011.28 1010.61 1010.07 1010.19 1007.58 1004.86 1003.87 1003.77 1004.13 1004.03 1003.90 1003.44 1003.63 1003.90 1004.74 1005.76 1006.18 1006.03 1005.35 1005.14 1004.87 1004.69 1005.08 1005.11 1005.54 1006.04 1006.95 1007.08 1008.52 1007.80 1008.20 1007.13 1006.92 1006.32 1006.90 1007.05 1007.16 1007.10 1007.87
1015.21 1014.76 1015.08 1014.57 1012.78 1011.55 1011.29 1010.85 1010.98 1009.59 1006.96 1005.52 1004.69 1004.16 1004.19 1004.19 1004.16 1004.15 1004.38 1004.87 1005.61 1006.34 1006.77 1006.16 1005.40 1004.75 1004.50 1004.69 1004.79 1005.20 1006.45 1007.41 1008.32 1008.71 1008.95 1008.25 1008.26 1005.91 1005.07 1004.99 1004.67 1005.32 1005.99 1006.75 1007.68
1014.51 1013.78 1013.00 1012.51 1011.98 1011.93 1011.74 1011.45 1011.15 1009.10 1007.54 1006.07 1005.13 1004.52 1004.50 1004.45 1004.33 1004.28 1004.66 1005.30 1005.58 1006.12 1006.99 1006.48 1005.37 1004.35 1004.16 1004.19 1004.52 1005.18 1006.16 1007.51 1008.90 1009.69 1009.10 1008.18 1007.29 1005.11 1004.29 1004.05 1003.59 1003.95 1004.57 1005.84 1007.12
1013.88 1013.12 1012.78 1011.11 1011.61 1012.00 1012.11 1012.13 1010.70 1009.29 1007.87 1006.85 1005.45 1005.08 1004.91 1004.45 1004.38 1004.69 1004.97 1005.13 1004.95 1005.37 1006.32 1006.19 1005.27 1004.14 1003.65 1003.57 1004.17 1004.98 1005.95 1006.30 1008.47 1009.70 1009.40 1008.44 1006.75 1004.87 1004.22 1004.22 1003.92 1004.33 1004.92 1005.36 1005.94
1014.15 1013.38 1011.95 1010.61 1011.01 1011.51 1012.09 1012.01 1010.68 1009.07 1007.89 1007.08 1006.58 1005.83 1005.60 1004.74 1004.49 1004.75 1004.39 1003.86 1004.15 1004.29 1004.52 1005.47 1005.50 1004.14 1003.45 1003.35 1003.65 1004.19 1004.96 1006.68 1008.19 1009.48 1009.82 1008.68 1007.30 1005.84 1004.61 1004.52 1004.34 1004.52 1004.64 1004.99 1005.85
1014.08 1013.01 1010.79 1010.54 1010.80 1011.59 1012.51 1011.89 1010.26 1008.70 1007.84 1007.33 1006.77 1006.36 1005.84 1005.12 1004.54 1004.37 1004.14 1003.31 1003.11 1003.86 1004.21 1005.24 1005.64 1004.68 1003.70 1003.55 1003.64 1004.24 1005.15 1006.36 1007.47 1008.37 1008.90 1008.66 1007.16 1004.49 1004.58 1004.97 1004.24 1004.04 1003.85 1004.19 1004.32
1014.39 1013.09 1011.04 1011.15 1011.55 1012.17 1012.04 1010.91 1009.71 1008.34 1007.59 1007.19 1006.69 1006.44 1005.85 1005.11 1004.50 1004.05 1003.79 1003.25 1002.68 1002.93 1004.30 1004.59 1005.49 1005.51 1004.39 1003.24 1003.35 1003.71 1004.34 1005.20 1006.92 1008.20 1008.23 1007.73 1005.72 1004.37 1004.40 1004.45 1004.64 1003.79 1003.43 1003.88 1004.81
1015.30 1013.83 1011.31 1011.43 1011.93 1012.21 1011.44 1010.50 1009.40 1008.34 1007.36 1006.94 1006.31 1005.66 1005.08 1004.74 1004.55 1004.01 1003.58 1002.72 1002.65 1002.79 1003.00 1004.05 1005.06 1005.36 1004.85 1004.01 1003.34 1003.51 1003.63 1004.27 1005.29 1006.25 1007.24 1006.99 1005.51 1004.91 1004.74 1004.34 1004.31 1003.74 1003.68 1004.41 1004.97
1015.63 1014.36 1012.62 1012.09 1012.08 1011.82 1011.40 1010.28 1009.03 1007.68 1007.03 1006.49 1005.78 1005.19 1004.99 1004.64 1004.45 1003.99 1003.76 1003.21 1003.10 1003.27 1003.00 1003.40 1004.64 1005.08 1005.20 1004.37 1003.70 1003.49 1003.32 1003.65 1004.30 1005.82 1006.17 1005.59 1004.65 1004.79 1004.75 1004.63 1004.57 1004.44 1004.45 1004.83 1005.25
1015.95 1015.18 1014.30 1013.28 1012.78 1012.15 1011.34 1010.33 1009.27 1008.19 1007.14 1006.46 1005.86 1005.75 1005.68 1005.24 1004.71 1004.39 1004.03 1004.09 1003.56 1003.91 1003.71 1004.26 1005.31 1005.27 1004.30 1003.74 1003.53 1002.96 1002.86 1003.19 1003.51 1004.08 1004.70 1004.26 1004.58 1003.96 1003.96 1004.11 1004.30 1004.67 1004.78 1004.97 1005.19
1016.05 1015.63 1014.64 1013.94 1013.19 1012.30 1011.48 1010.48 1009.72 1008.57 1007.73 1007.22 1006.60 1005.73 1005.10 1005.25 1004.99 1004.48 1004.47 1004.53 1004.48 1004.48 1004.67 1005.03 1005.78 1005.54 1005.22 1004.31 1003.67 1002.86 1002.22 1002.44 1002.50 1002.74 1003.24 1003.52 1003.41 1002.64 1003.39 1004.09 1004.79 1004.82 1004.82 1004.93 1005.01
1015.81 1015.68 1015.42 1014.40 1013.66 1012.86 1012.08 1011.08 1009.93 1009.16 1007.82 1007.16 1006.88 1006.21 1005.60 1005.56 1005.29 1004.72 1004.62 1004.88 1004.99 1005.37 1005.72 1005.92 1006.33 1006.53 1006.16 1005.15 1004.13 1003.22 1002.17 1001.61 1001.62 1001.83 1002.28 1003.18 1002.44 1003.09 1003.92 1003.55 1003.16 1003.88 1004.34 1004.34 1004.34
Thickness
5755 5761 5766 5771 5776 5781 5786 5789 5793 5797 5801 5806 5811 5815 5820 5826 5838 5847 5843 5865 5870 5871 5870 5866 5861 5862 5864 5850 5854 5849 5800 5782 5797 5797 5811 5820 5819 5822 5822 5811 5820 5821 5808 5798 5789
5751 5756 5762 5767 5773 5779 5784 5788 5791 5795 5801 5807 5811 5815 5819 5824 5829 5837 5872 5877 5876 5873 5863 5857 5852 5856 5846 5847 5846 5828 5798 5808 5832 5831 5822 5827 5824 5820 5815 5814 5812 5808 5808 5799 5785
5748 5753 5759 5764 5770 5776 5781 5786 5790 5795 5801 5806 5811 5815 5818 5821 5824 5845 5877 5876 5876 5873 5866 5864 5860 5853 5837 5841 5841 5834 5817 5839 5843 5842 5839 5831 5825 5830 5815 5798 5811 5805 5800 5795 5787
5744 5749 5755 5761 5767 5774 5780 5786 5791 5795 5800 5806 5811 5814 5818 5820 5802 5862 5874 5873 5875 5873 5864 5858 5850 5837 5828 5823 5846 5828 5852 5855 5846 5844 5836 5828 5832 5820 5823 5822 5829 5826 5816 5804 5789
5739 5745 5751 5757 5764 5771 5777 5784 5791 5795 5800 5805 5809 5813 5818 5813 5823 5871 5871 5870 5870 5866 5856 5849 5839 5833 5821 5830 5843 5837 5847 5849 5848 5841 5838 5836 5830 5826 5827 5835 5830 5826 5817 5805 5797
5735 5740 5747 5754 5762 5769 5775 5783 5791 5796 5798 5804 5807 5810 5812 5800 5862 5868 5869 5868 5864 5859 5856 5852 5843 5846 5835 5835 5831 5848 5844 5843 5838 5840 5838 5825 5825 5829 5833 5838 5826 5821 5816 5808 5801
5731 5736 5742 5750 5758 5766 5774 5782 5790 5796 5800 5802 5804 5808 5806 5822 5863 5865 5864 5863 5865 5861 5849 5858 5859 5844 5845 5832 5853 5851 5825 5830 5827 5836 5831 5837 5818 5819 5835 5834 5823 5819 5818 5814 5807
5728 5732 5738 5745 5753 5763 5773 5782 5791 5797 5801 5802 5803 5804 5802 5853 5857 5856 5862 5861 5866 5865 5859 5864 5863 5849 5842 5849 5843 5831 5828 5799 5827 5833 5835 5832 5802 5825 5832 5827 5818 5817 5814 5816 5811
5722 5728 5735 5742 5750 5760 5772 5782 5791 5797 5799 5799 5798 5801 5801 5852 5845 5861 5862 5850 5858 5860 5861 5866 5859 5837 5836 5816 5802 5806 5790 5803 5810 5832 5830 5821 5807 5829 5831 5824 5814 5813 5816 5817 5814
5718 5724 5731 5739 5747 5758 5771 5783 5790 5792 5794 5796 5800 5791 5819 5826 5843 5854 5858 5857 5847 5846 5838 5838 5823 5808 5801 5795 5767 5784 5788 5803 5802 5818 5823 5813 5814 5826 5829 5821 5818 5817 5818 5814 5815
5715 5721 5727 5736 5746 5756 5769 5782 5779 5781 5790 5793 5799 5801 5814 5832 5846 5844 5850 5845 5841 5825 5803 5813 5797 5787 5800 5805 5805 5805 5799 5794 5814 5833 5819 5813 5821 5823 5824 5819 5818 5816 5815 5810 5812
5713 5719 5726 5736 5746 5755 5760 5765 5769 5769 5763 5802 5807 5807 5820 5824 5807 5827 5847 5820 5816 5796 5806 5791 5782 5808 5814 5811 5804 5803 5796 5796 5818 5839 5836 5809 5813 5823 5822 5822 5821 5817 5815 5810 5811
5711 5717 5724 5735 5747 5753 5753 5763 5773 5773 5759 5793 5805 5807 5813 5816 5802 5811 5828 5815 5805 5792 5791 5776 5799 5816 5809 5804 5795 5797 5794 5798 5803 5827 5832 5818 5802 5808 5821 5821 5821 5823 5817 5814 5810
5710 5715 5721 5732 5744 5742 5754 5768 5773 5774 5738 5774 5794 5809 5815 5815 5800 5829 5830 5816 5801 5787 5783 5785 5808 5806 5801 5795 5796 5782 5814 5813 5815 5804 5777 5807 5766 5797 5805 5808 5813 5820 5818 5819 5821
5709 5713 5716 5721 5726 5735 5758 5766 5773 5770 5717 5790 5796 5827 5813 5800 5809 5817 5829 5814 5787 5788 5782 5780 5798 5796 5789 5800 5807 5800 5818 5811 5813 5796 5787 5793 5771 5792 5795 5795 5807 5814 5822 5824 5824
5710 5713 5714 5720 5722 5744 5755 5762 5765 5723 5718 5776 5795 5788 5787 5796 5800 5812 5811 5818 5807 5788 5787 5786 5807 5802 5800 5813 5812 5821 5812 5799 5789 5781 5747 5781 5775 5780 5791 5805 5810 5819 5823 5829 5824
5713 5717 5714 5719 5733 5746 5751 5752 5713 5702 5764 5762 5772 5784 5779 5778 5786 5791 5787 5779 5764 5751 5753 5773 5784 5803 5812 5796 5808 5808 5776 5742 5747 5748 5742 5772 5768 5795 5821 5826 5837 5833 5833 5830 5825
5716 5722 5729 5734 5739 5740 5741 5728 5705 5733 5740 5768 5774 5777 5770 5773 5777 5781 5772 5762 5774 5769 5740 5744 5748 5790 5809 5800 5794 5789 5778 5741 5730 5731 5747 5772 5767 5801 5834 5838 5849 5849 5848 5840 5826
5718 5725 5728 5741 5737 5735 5727 5699 5708 5721 5747 5750 5762 5759 5760 5771 5775 5773 5765 5758 5773 5771 5751 5742 5758 5801 5811 5817 5807 5790 5773 5793 5747 5744 5741 5756 5787 5819 5828 5829 5836 5837 5840 5837 5834
5712 5719 5726 5740 5737 5732 5712 5699 5715 5736 5746 5748 5737 5754 5743 5759 5766 5759 5761 5781 5780 5785 5789 5774 5749 5786 5805 5813 5813 5801 5804 5767 5752 5732 5733 5747 5770 5778 5813 5814 5824 5828 5836 5839 5833
5707 5715 5735 5737 5735 5717 5695 5695 5719 5737 5745 5738 5738 5740 5741 5754 5762 5756 5763 5784 5793 5788 5787 5769 5759 5771 5799 5791 5793 5788 5779 5771 5767 5752 5734 5730 5755 5812 5814 5815 5823 5835 5846 5846 5846
5694 5708 5727 5726 5708 5694 5695 5707 5726 5732 5745 5742 5743 5741 5741 5755 5756 5762 5762 5778 5799 5790 5769 5777 5751 5744 5769 5803 5810 5804 5792 5781 5752 5754 5745 5744 5764 5828 5823 5827 5829 5840 5848 5847 5833
5686 5689 5719 5717 5692 5691 5704 5716 5728 5727 5734 5741 5746 5755 5761 5760 5751 5761 5770 5795 5797 5792 5782 5779 5751 5735 5751 5775 5800 5796 5799 5793 5777 5766 5749 5748 5762 5810 5817 5825 5830 5835 5841 5834 5826
5680 5690 5697 5702 5697 5700 5701 5708 5715 5736 5736 5743 5750 5756 5753 5753 5758 5762 5767 5785 5792 5788 5792 5791 5750 5754 5747 5760 5783 5783 5795 5795 5780 5751 5759 5765 5791 5799 5806 5812 5819 5827 5832 5826 5818
5672 5678 5681 5678 5687 5694 5700 5704 5707 5713 5733 5738 5739 5744 5740 5742 5749 5754 5766 5768 5783 5780 5785 5777 5753 5759 5769 5780 5781 5793 5795 5787 5787 5780 5771 5789 5781 5799 5807 5812 5820 5819 5820 5817 5812
5666 5668 5672 5673 5680 5691 5693 5702 5704 5716 5723 5719 5723 5740 5747 5740 5748 5749 5758 5759 5765 5773 5772 5767 5748 5761 5765 5775 5778 5785 5797 5795 5796 5795 5794 5795 5793 5817 5814 5813 5809 5811 5813 5815 5814
5664 5663 5663 5669 5674 5680 5684 5692 5704 5710 5724 5730 5727 5729 5734 5740 5748 5755 5760 5756 5765 5763 5757 5755 5746 5738 5738 5752 5764 5752 5781 5795 5802 5806 5803 5776 5809 5810 5803 5815 5822 5817 5817 5818 5819